Location: Del Amo
(33.8464°N, 118.2104°W)
Time: 21:09:13
(UTC+00:00)

Vanguard 3 - Pass Details

Date: 20 September 2024
Orbit: 507 x 3223 km, 33.3° (Epoch: 14 October)

Event Time Altitude Azimuth Distance (km) Brightness Sun altitude
Exits shadow 09:56:52 20° 151° (SSE) 4,224 10.6 -43.7°
Maximum altitude 10:00:57 23° 130° (SE) 4,363 10.8 -43.1°
Drops below altitude 10° 10:13:09 10° 88° (E) 5,996 12.0 -41.1°
Sets 10:19:42 0° 76° (ENE) 7,166 12.7 -40.0°
